Tracking 19846 objects as of 20-Sep-2019
HD Live streaming from Space Station
objects crossing your sky now

FENGYUN 1C DEB

Track FENGYUN 1C DEB now!
10-day predictions


NORAD ID: 37040
Int'l Code: 1999-025EDY
Perigee: 771.2 km
Apogee: 891.4 km
Inclination: 99.6 °
Period: 101.4 minutes
Semi major axis: 7202 km
RCS: 0.0091 m2 (small)
Launch date: May 10, 1999
Source: People's Republic of China (PRC)
Launch site: Taiyaun Space Center, China (TSC)

Note: This is SATELLITE DEBRIS
aabbcc
Your satellite tracking list
Your tracking list is empty




NASA's NSSDC Master Catalog

Two Line Element Set (TLE):
1 37040U 99025EDY 19262.84000201  .00000794  00000-0  38130-3 0  9992
2 37040  99.5944 265.5486 0083446 197.6222 162.2052 14.20367206552681
Source of the keplerian elements: AFSPC